Date String (YYYY-MM-DD hh:mm:ss) UTC,Instrument flags,Ambient pressure (hPa),Sample flow (lpm),Bypass flow (lpm),Sample temperature (°C),Ambient temperature (°C),ASC tube jacket temperature (°C),LED temperature (°C),Box temperature (°C),Sample RH (%),Span deviation,Mass concentration (μg/m³),Mass concentration (μg/m³),Mass concentration (μg/m³)
DateTimeUTC,F1_M11,P_M11,Q1_M11,Q2_M11,T1_M11,T2_M11,T3_M11,T4_M11,T5_M11,U1_M11,ZSPAN_M11,X0_M11,X2_M11,X1_M11
2022-01-15 03:00:00,,0834.9,5.00,0.00,22.5,22.3,00.0,31.6,24.2,10.1,0000.0,0003.52,0001.01,0000.81
2022-01-15 03:01:00,,0834.8,5.01,0.00,22.5,22.1,00.0,31.5,24.1,10.2,0000.0,0003.39,0001.03,0000.87
2022-01-15 03:02:00,,0834.9,5.00,0.00,22.4,22.0,00.0,31.5,24.1,10.2,0000.0,0003.32,0001.06,0000.92
2022-01-15 03:03:00,,0834.8,5.01,0.00,22.4,21.9,00.0,31.5,24.0,10.3,0000.0,0002.53,0001.12,0000.97
2022-01-15 03:04:00,,0834.9,4.99,0.00,22.3,21.8,00.0,31.5,23.9,10.3,0000.0,0002.05,0001.21,0001.02
2022-01-15 03:05:00,,0834.8,4.99,0.00,22.3,21.7,00.0,31.5,23.9,10.4,0000.0,0001.79,0001.26,0001.08
2022-01-15 03:06:00,,0834.8,5.01,0.00,22.3,21.8,00.0,31.5,23.9,10.4,0000.0,0001.84,0001.30,0001.11
2022-01-15 03:07:00,,0834.9,4.98,0.00,22.4,22.6,00.0,31.5,24.1,10.3,0000.0,0001.90,0001.34,0001.14
2022-01-15 03:08:00,,0834.9,5.01,0.00,22.5,23.4,00.0,31.5,24.5,10.2,0000.0,0001.92,0001.36,0001.15
2022-01-15 03:09:00,,0835.0,4.99,0.00,22.7,23.5,00.0,31.5,24.6,10.1,0000.0,0001.95,0001.38,0001.17
2022-01-15 03:10:00,,0834.9,5.01,0.00,22.7,23.2,00.0,31.6,24.6,10.1,0000.0,0002.19,0001.38,0001.19
2022-01-15 03:11:00,,0834.9,5.00,0.00,22.7,23.0,00.0,31.6,24.5,10.1,0000.0,0002.67,0001.39,0001.20
2022-01-15 03:12:00,,0834.9,5.00,0.00,22.7,22.7,00.0,31.6,24.4,10.1,0000.0,0003.01,0001.42,0001.21
2022-01-15 03:13:00,,0834.9,4.98,0.00,22.6,22.5,00.0,31.6,24.3,10.1,0000.0,0003.88,0001.48,0001.23
2022-01-15 03:14:00,,0834.9,5.00,0.00,22.6,22.4,00.0,31.6,24.3,10.1,0000.0,0003.85,0001.49,0001.24
2022-01-15 03:15:00,,0834.9,5.01,0.00,22.6,22.2,00.0,31.6,24.2,10.2,0000.0,0003.77,0001.48,0001.26
2022-01-15 03:16:00,,0835.0,4.99,0.00,22.5,22.1,00.0,31.5,24.2,10.2,0000.0,0003.84,0001.45,0001.26
2022-01-15 03:17:00,,0834.9,5.00,0.00,22.5,22.0,00.0,31.5,24.1,10.2,0000.0,0003.80,0001.46,0001.27
2022-01-15 03:18:00,,0835.0,5.02,0.00,22.5,21.9,00.0,31.5,24.1,10.2,0000.0,0003.83,0001.48,0001.27
2022-01-15 03:19:00,,0835.0,4.99,0.00,22.4,21.8,00.0,31.5,24.0,10.2,0000.0,0003.92,0001.50,0001.27
2022-01-15 03:20:00,,0834.9,4.99,0.00,22.4,21.8,00.0,31.5,24.0,10.2,0000.0,0003.94,0001.51,0001.26
2022-01-15 03:21:00,,0834.9,5.01,0.00,22.3,21.7,00.0,31.5,24.0,10.2,0000.0,0003.83,0001.51,0001.25
2022-01-15 03:22:00,,0834.9,4.99,0.00,22.3,21.7,00.0,31.4,23.9,10.2,0000.0,0003.20,0001.49,0001.25
2022-01-15 03:23:00,,0835.0,5.00,0.00,22.3,21.6,00.0,31.4,23.9,10.2,0000.0,0002.99,0001.46,0001.25
2022-01-15 03:24:00,,0835.0,5.01,0.00,22.2,21.6,00.0,31.4,23.8,10.3,0000.0,0002.14,0001.44,0001.24
2022-01-15 03:25:00,,0835.0,5.00,0.00,22.2,21.5,00.0,31.4,23.8,10.2,0000.0,0002.27,0001.44,0001.24
2022-01-15 03:26:00,,0835.0,5.00,0.00,22.2,21.4,00.0,31.3,23.8,10.2,0000.0,0002.60,0001.47,0001.24
2022-01-15 03:27:00,,0834.9,5.02,0.00,22.2,21.7,00.0,31.3,23.8,10.2,0000.0,0002.46,0001.50,0001.25
2022-01-15 03:28:00,,0835.0,4.99,0.00,22.3,22.5,00.0,31.4,24.1,10.2,0000.0,0002.45,0001.51,0001.25
2022-01-15 03:29:00,,0835.0,5.01,0.00,22.5,23.2,00.0,31.4,24.4,10.1,0000.0,0002.45,0001.50,0001.24
2022-01-15 03:30:00,,0835.0,4.99,0.00,22.6,23.2,00.0,31.4,24.5,10.1,0000.0,0003.32,0001.48,0001.25
2022-01-15 03:31:00,,0835.1,5.00,0.00,22.6,23.0,00.0,31.4,24.5,10.0,0000.0,0003.35,0001.47,0001.25
2022-01-15 03:32:00,,0835.1,4.99,0.00,22.6,22.7,00.0,31.4,24.4,10.1,0000.0,0003.38,0001.47,0001.25
2022-01-15 03:33:00,,0835.1,5.00,0.00,22.5,22.5,00.0,31.4,24.3,10.1,0000.0,0003.47,0001.50,0001.26
2022-01-15 03:34:00,,0835.1,5.00,0.00,22.5,22.3,00.0,31.4,24.2,10.1,0000.0,0003.50,0001.53,0001.28
2022-01-15 03:35:00,,0835.1,5.00,0.00,22.5,22.1,00.0,31.4,24.1,10.1,0000.0,0003.48,0001.53,0001.29
2022-01-15 03:36:00,,0835.2,5.00,0.00,22.4,22.0,00.0,31.4,24.1,10.1,0000.0,0003.41,0001.55,0001.30
2022-01-15 03:37:00,,0835.2,5.00,0.00,22.4,21.9,00.0,31.4,24.0,10.2,0000.0,0003.89,0001.56,0001.31
2022-01-15 03:38:00,,0835.2,5.01,0.00,22.4,21.8,00.0,31.4,24.0,10.2,0000.0,0004.93,0001.55,0001.32
2022-01-15 03:39:00,,0835.2,5.00,0.00,22.3,21.7,00.0,31.4,24.0,10.2,0000.0,0004.90,0001.54,0001.33
2022-01-15 03:40:00,,0835.3,5.00,0.00,22.3,21.7,00.0,31.4,24.0,10.2,0000.0,0005.01,0001.54,0001.34
2022-01-15 03:41:00,,0835.4,5.01,0.00,22.3,21.6,00.0,31.4,23.9,10.3,0000.0,0004.96,0001.58,0001.36
2022-01-15 03:42:00,,0835.4,4.99,0.00,22.2,21.6,00.0,31.3,23.9,10.3,0000.0,0004.36,0001.60,0001.36
2022-01-15 03:43:00,,0835.4,5.00,0.00,22.2,21.6,00.0,31.3,23.8,10.3,0000.0,0004.40,0001.64,0001.39
2022-01-15 03:44:00,,0835.4,5.00,0.00,22.2,21.5,00.0,31.3,23.8,10.3,0000.0,0004.38,0001.64,0001.40
2022-01-15 03:45:00,,0835.4,5.00,0.00,22.2,21.5,00.0,31.3,23.8,10.3,0000.0,0004.36,0001.64,0001.41
2022-01-15 03:46:00,,0835.4,5.00,0.00,22.1,21.5,00.0,31.3,23.8,10.3,0000.0,0004.36,0001.65,0001.42
2022-01-15 03:47:00,,0835.3,4.99,0.00,22.1,21.4,00.0,31.2,23.7,10.4,0000.0,0004.67,0001.66,0001.42
2022-01-15 03:48:00,,0835.3,5.02,0.00,22.1,21.4,00.0,31.2,23.7,10.4,0000.0,0005.39,0001.68,0001.43
2022-01-15 03:49:00,,0835.4,5.00,0.00,22.0,21.4,00.0,31.2,23.7,10.4,0000.0,0003.76,0001.70,0001.43
2022-01-15 03:50:00,,0835.5,5.00,0.00,22.0,21.4,00.0,31.2,23.7,10.4,0000.0,0003.83,0001.72,0001.43
2022-01-15 03:51:00,,0835.5,5.00,0.00,22.1,21.9,00.0,31.2,23.8,10.4,0000.0,0003.66,0001.71,0001.43
2022-01-15 03:52:00,,0835.5,4.99,0.00,22.2,22.7,00.0,31.2,24.1,10.3,0000.0,0003.31,0001.68,0001.44
2022-01-15 03:53:00,,0835.5,5.00,0.00,22.4,23.1,00.0,31.3,24.4,10.2,0000.0,0004.12,0001.66,0001.44
2022-01-15 03:54:00,,0835.5,4.99,0.00,22.5,22.9,00.0,31.3,24.4,10.2,0000.0,0004.33,0001.66,0001.44
2022-01-15 03:55:00,,0835.5,5.00,0.00,22.5,22.7,00.0,31.3,24.4,10.2,0000.0,0004.40,0001.68,0001.46
2022-01-15 03:56:00,,0835.5,5.00,0.00,22.5,22.6,00.0,31.3,24.3,10.1,0000.0,0004.62,0001.72,0001.46
2022-01-15 03:57:00,,0835.6,5.00,0.00,22.5,22.4,00.0,31.3,24.3,10.1,0000.0,0004.90,0001.77,0001.46
2022-01-15 03:58:00,,0835.6,5.01,0.00,22.5,22.3,00.0,31.3,24.2,10.1,0000.0,0005.60,0001.78,0001.48
2022-01-15 03:59:00,,0835.6,4.99,0.00,22.4,22.2,00.0,31.3,24.2,10.1,0000.0,0004.69,0001.75,0001.49
